Terug naar catalogus

FENGYUN 1C DEB

ActiefSSO
NORAD 31542·DEBRIS·🇨🇳 China

Gelanceerd May 10, 1999 vanaf Taiyuan Satellite Launch Center

Loading…

Volgende Passages (komende 24 uur)

TLE

VersSource: Space-Track

Epoch: Sep 13, 2026, 08:56 UTC

1 31542U 99025BYH 26256.37226291  .00001570  00000-0  69355-3 0  9997
2 31542  98.7093 312.9160 0047683 132.2034 228.3208 14.24069171998475

Volg FENGYUN 1C DEB in realtime met AllMySat

Download on the App Store